Location: Thompson
(55.7500°N, 97.8670°W)
Time: 23:11:06
(UTC-05:00)

Amateur Radio Satellites - All Passes

Search period start: 29 August 2014 22:41
Search period end: 30 August 2014 22:41
Location: Thompson, 55.7500°N, 97.8670°W

Satellite Date Start Highest point End Downlink Frequencies (MHz)
Time Altitude Azimuth
STRAND 1 29 Aug 22:44:40 22:48:06 18° 311° (NW) 22:51:31 ?
MaSat-1 29 Aug 22:58:12 23:03:10 89° 234° (SW) 23:07:33 437.345 MHz
Sapphire 29 Aug 23:05:24 23:09:53 25° 4° (N) 23:14:23 437.095 MHz 1200 baud AX-25 AFSK
UKube-1 29 Aug 23:29:34 23:31:59 15° 273° (W) 23:34:24 145.840 MHz, 145.915 MHz
PCSat 29 Aug 23:35:25 23:40:03 27° 12° (NNE) 23:44:40 145.825 MHz
Oscar 11 29 Aug 23:35:55 23:39:01 19° 271° (W) 23:42:09 145.825 FM, Beacon 2401.500 USB
KITSAT 1 29 Aug 23:38:01 23:43:58 23° 105° (ESE) 23:49:54 435.175 FM
FUNcube-1 29 Aug 23:58:14 00:01:41 24° 269° (W) 00:05:13 145.950 - 145.970 MHz USB
Saudisat 1A 30 Aug 00:27:14 00:31:29 48° 129° (SE) 00:35:45 436.775 MHz
MaSat-1 30 Aug 00:36:17 00:39:27 18° 256° (WSW) 00:42:23 437.345 MHz
Sapphire 30 Aug 00:49:33 00:54:41 40° 29° (NNE) 00:59:47 437.095 MHz 1200 baud AX-25 AFSK
PCSat 30 Aug 01:19:14 01:24:35 53° 37° (NE) 01:29:54 145.825 MHz
KITSAT 1 30 Aug 01:30:05 01:38:07 73° 128° (SE) 01:46:12 435.175 FM
Oscar 19 30 Aug 01:33:24 01:35:12 12° 81° (E) 01:36:59 437.125 CW, 437.150 USB
OPAL 30 Aug 01:55:02 01:55:24 10° 32° (NNE) 01:55:45 ?
Oscar 16 30 Aug 02:06:35 02:10:34 22° 89° (E) 02:14:31 437.025 USB, Beacon 2401.1428
Saudisat 1A 30 Aug 02:06:52 02:11:09 47° 330° (NNW) 02:15:27 436.775 MHz
AO-Echo 30 Aug 02:09:09 02:09:49 10° 81° (E) 02:10:28 ?
Uribyol 2 30 Aug 02:13:31 02:15:42 13° 82° (E) 02:17:54 436.500 FM
AO-27 30 Aug 02:31:19 02:34:36 17° 86° (E) 02:37:52 436.795 MHz FM
Sapphire 30 Aug 02:33:05 02:38:31 71° 232° (SW) 02:43:55 437.095 MHz 1200 baud AX-25 AFSK
Gurwin Techsat 1B 30 Aug 02:54:39 02:57:16 14° 82° (E) 02:59:53 435.225 FM
PCSat 30 Aug 03:02:51 03:08:01 45° 239° (WSW) 03:13:09 145.825 MHz
Oscar 19 30 Aug 03:10:31 03:15:42 59° 102° (ESE) 03:20:49 437.125 CW, 437.150 USB
JAS-1B 30 Aug 03:21:50 03:28:36 39° 92° (E) 03:34:23 435.800 - 435.900 CW/SSB
KITSAT 1 30 Aug 03:26:06 03:34:01 54° 333° (NNW) 03:41:56 435.175 FM
OPAL 30 Aug 03:28:24 03:32:52 32° 54° (NE) 03:37:24 ?
ITAMSAT 1 30 Aug 03:40:55 03:45:59 51° 100° (E) 03:51:02 435.822 SSB
AO-Echo 30 Aug 03:44:59 03:49:41 59° 102° (ESE) 03:54:19 ?
Oscar 16 30 Aug 03:45:18 03:50:33 79° 289° (WNW) 03:55:45 437.025 USB, Beacon 2401.1428
TMSAT-1 30 Aug 03:45:41 03:50:01 25° 90° (E) 03:54:20 436.925 FM
AO-7 30 Aug 03:46:41 03:49:11 11° 75° (ENE) 03:51:41 29.400 - 29.500 MHz
Saudisat 1A 30 Aug 03:47:50 03:51:37 27° 354° (N) 03:55:25 436.775 MHz
Uribyol 2 30 Aug 03:51:05 03:56:16 63° 103° (ESE) 04:01:25 436.500 FM
AO-27 30 Aug 04:09:44 04:14:57 82° 106° (ESE) 04:20:10 436.795 MHz FM
Sapphire 30 Aug 04:17:41 04:21:05 17° 253° (WSW) 04:24:28 437.095 MHz 1200 baud AX-25 AFSK
SO-50 30 Aug 04:26:32 04:29:40 19° 115° (ESE) 04:32:51 436.795 FM
Oscar 10/S400 30 Aug 04:31:05 05:27:12 23° 234° (SW) 08:08:23 145.825 - 145.975 CW/USB, Beacon 145.810 USB
Gurwin Techsat 1B 30 Aug 04:32:59 04:38:18 67° 103° (ESE) 04:43:35 435.225 FM
Uosat F 30 Aug 04:35:42 04:38:31 15° 85° (E) 04:41:20 435.120 FM
Oscar 19 30 Aug 04:50:16 04:54:49 31° 302° (WNW) 04:59:20 437.125 CW, 437.150 USB
OPAL 30 Aug 05:06:30 05:11:31 60° 255° (WSW) 05:16:40 ?
JAS-1B 30 Aug 05:12:24 05:19:41 57° 299° (WNW) 05:25:48 435.800 - 435.900 CW/SSB
STRAND 1 30 Aug 05:12:33 05:15:42 17° 47° (NE) 05:18:52 ?
ITAMSAT 1 30 Aug 05:20:42 05:25:23 35° 301° (WNW) 05:30:03 435.822 SSB
KITSAT 1 30 Aug 05:23:30 05:31:05 41° 2° (N) 05:38:39 435.175 FM
AO-Echo 30 Aug 05:24:16 05:28:12 27° 303° (WNW) 05:32:07 ?
TMSAT-1 30 Aug 05:25:10 05:30:28 70° 291° (WNW) 05:35:44 436.925 FM
Oscar 16 30 Aug 05:25:33 05:29:12 20° 310° (NW) 05:32:52 437.025 USB, Beacon 2401.1428
Saudisat 1A 30 Aug 05:28:16 05:32:17 32° 18° (NNE) 05:36:17 436.775 MHz
Uribyol 2 30 Aug 05:31:02 05:35:28 29° 304° (WNW) 05:39:54 436.500 FM
AO-7 30 Aug 05:36:29 05:44:25 46° 99° (E) 05:52:17 29.400 - 29.500 MHz
AO-27 30 Aug 05:49:55 05:53:59 24° 307° (NW) 05:58:03 436.795 MHz FM
SO-50 30 Aug 06:05:03 06:09:36 83° 136° (SE) 06:14:17 436.795 FM
Uosat F 30 Aug 06:13:09 06:18:11 77° 106° (ESE) 06:23:12 435.120 FM
Hamsat 30 Aug 06:13:15 06:15:29 14° 84° (E) 06:17:43 145.90 MHz
Gurwin Techsat 1B 30 Aug 06:13:27 06:17:57 29° 304° (NW) 06:22:27 435.225 FM
JAS-2 30 Aug 06:26:10 06:29:48 19° 87° (E) 06:33:30 435.800 - 435.900 CW/SSB, 435.910 FM
UOSAT-12 30 Aug 06:29:41 06:33:24 24° 118° (ESE) 06:37:11 437.025 FM, 437.400 FM
STRAND 1 30 Aug 06:49:02 06:54:05 66° 68° (ENE) 06:59:09 ?
OPAL 30 Aug 06:49:45 06:51:32 12° 276° (W) 06:53:21 ?
ITAMSAT 1 30 Aug 07:03:04 07:03:32 10° 323° (NW) 07:04:00 435.822 SSB
JAS-1B 30 Aug 07:03:35 07:08:43 20° 325° (NW) 07:13:20 435.800 - 435.900 CW/SSB
TMSAT-1 30 Aug 07:06:06 07:09:35 18° 312° (NW) 07:13:04 436.925 FM
Saudisat 1A 30 Aug 07:07:57 07:12:24 84° 41° (NE) 07:16:50 436.775 MHz
KITSAT 1 30 Aug 07:20:05 07:28:05 57° 30° (NNE) 07:36:02 435.175 FM
AO-7 30 Aug 07:29:26 07:37:34 62° 302° (WNW) 07:45:40 29.400 - 29.500 MHz
SO-67 30 Aug 07:35:22 07:36:47 12° 86° (E) 07:38:11 435.3500 MHz FM
SO-50 30 Aug 07:46:21 07:50:37 36° 339° (NNW) 07:54:59 436.795 FM
Hamsat 30 Aug 07:47:47 07:52:12 83° 105° (ESE) 07:56:33 145.90 MHz
Uosat F 30 Aug 07:52:34 07:56:33 24° 306° (NW) 08:00:31 435.120 FM
UOSAT-12 30 Aug 08:08:25 08:13:07 83° 319° (NW) 08:17:54 437.025 FM, 437.400 FM
JAS-2 30 Aug 08:10:28 08:15:41 86° 288° (WNW) 08:21:06 435.800 - 435.900 CW/SSB, 435.910 FM
RS-15 30 Aug 08:15:31 08:25:08 37° 110° (ESE) 08:34:41 29.354 - 29.394 USB, Beacon 29.352 USB
STRAND 1 30 Aug 08:29:33 08:33:44 25° 269° (W) 08:37:56 ?
Saudisat 1A 30 Aug 08:48:07 08:51:33 22° 241° (WSW) 08:54:58 436.775 MHz
JAS-1B 30 Aug 08:54:37 08:56:24 11° 352° (N) 08:58:08 435.800 - 435.900 CW/SSB
SO-67 30 Aug 09:06:52 09:10:21 80° 286° (WNW) 09:13:49 435.3500 MHz FM
KITSAT 1 30 Aug 09:15:48 09:23:47 65° 235° (SW) 09:31:43 435.175 FM
AO-7 30 Aug 09:22:37 09:28:59 26° 327° (NNW) 09:35:21 29.400 - 29.500 MHz
Hamsat 30 Aug 09:24:35 09:27:39 19° 305° (NW) 09:30:42 145.90 MHz
SO-50 30 Aug 09:28:13 09:32:16 28° 4° (N) 09:36:23 436.795 FM
UOSAT-12 30 Aug 09:49:32 09:53:51 34° 342° (NNW) 09:58:12 437.025 FM, 437.400 FM
HO-68 30 Aug 09:50:28 09:56:46 32° 92° (E) 10:03:02 435.675 MHz FM
JAS-2 30 Aug 09:56:32 10:00:14 20° 310° (NW) 10:03:58 435.800 - 435.900 CW/SSB, 435.910 FM
RS-15 30 Aug 10:25:22 10:36:23 90° 317° (NW) 10:47:26 29.354 - 29.394 USB, Beacon 29.352 USB
JAS-1B 30 Aug 10:40:13 10:43:42 13° 20° (NNE) 10:47:00 435.800 - 435.900 CW/SSB
SO-67 30 Aug 10:41:34 10:42:49 12° 306° (NW) 10:44:04 435.3500 MHz FM
UKube-1 30 Aug 11:07:38 11:11:58 60° 103° (ESE) 11:16:16 145.840 MHz, 145.915 MHz
SO-50 30 Aug 11:09:16 11:13:48 45° 27° (NNE) 11:18:26 436.795 FM
KITSAT 1 30 Aug 11:12:23 11:17:43 20° 258° (WSW) 11:23:03 435.175 FM
Oscar 11 30 Aug 11:14:15 11:18:33 51° 100° (E) 11:22:49 145.825 FM, Beacon 2401.500 USB
AO-7 30 Aug 11:14:43 11:19:07 16° 354° (N) 11:23:32 29.400 - 29.500 MHz
Oscar 19 30 Aug 11:22:17 11:23:08 10° 38° (NE) 11:23:59 437.125 CW, 437.150 USB
UOSAT-12 30 Aug 11:30:58 11:35:07 29° 6° (N) 11:39:17 437.025 FM, 437.400 FM
HO-68 30 Aug 11:37:59 11:45:08 75° 294° (WNW) 11:52:16 435.675 MHz FM
FUNcube-1 30 Aug 11:38:29 11:42:45 41° 97° (E) 11:47:04 145.950 - 145.970 MHz USB
Oscar 16 30 Aug 11:54:15 11:57:22 16° 46° (NE) 12:00:29 437.025 USB, Beacon 2401.1428
Uribyol 2 30 Aug 12:02:48 12:04:22 11° 39° (NE) 12:05:56 436.500 FM
AO-27 30 Aug 12:20:20 12:22:56 14° 43° (NE) 12:25:31 436.795 MHz FM
JAS-1B 30 Aug 12:24:29 12:31:48 28° 45° (NE) 12:38:19 435.800 - 435.900 CW/SSB
RS-15 30 Aug 12:39:09 12:49:53 56° 348° (NNW) 13:00:46 29.354 - 29.394 USB, Beacon 29.352 USB
UKube-1 30 Aug 12:44:22 12:47:53 24° 303° (WNW) 12:51:23 145.840 MHz, 145.915 MHz
Gurwin Techsat 1B 30 Aug 12:46:34 12:48:38 12° 40° (NE) 12:50:42 435.225 FM
ISS 30 Aug 12:48:58 12:51:35 22° 155° (SSE) 12:54:14 145.800 FM
SO-50 30 Aug 12:49:54 12:54:34 58° 229° (SW) 12:59:19 436.795 FM
Oscar 11 30 Aug 12:50:49 12:54:33 28° 300° (WNW) 12:58:15 145.825 FM, Beacon 2401.500 USB
Oscar 19 30 Aug 12:56:27 13:01:08 36° 60° (ENE) 13:05:52 437.125 CW, 437.150 USB
MaSat-1 30 Aug 12:58:08 12:58:31 10° 97° (E) 12:58:55 437.345 MHz
AO-7 30 Aug 13:03:39 13:08:58 19° 21° (NNE) 13:14:16 29.400 - 29.500 MHz
UOSAT-12 30 Aug 13:11:32 13:16:11 50° 30° (NNE) 13:20:48 437.025 FM, 437.400 FM
FUNcube-1 30 Aug 13:15:03 13:19:07 35° 297° (WNW) 13:23:15 145.950 - 145.970 MHz USB
HO-68 30 Aug 13:26:18 13:31:55 26° 317° (NW) 13:37:33 435.675 MHz FM
AO-Echo 30 Aug 13:27:26 13:31:50 33° 60° (ENE) 13:36:07 ?
ITAMSAT 1 30 Aug 13:28:01 13:32:37 33° 58° (ENE) 13:37:13 435.822 SSB
Oscar 16 30 Aug 13:30:44 13:35:50 62° 68° (ENE) 13:40:59 437.025 USB, Beacon 2401.1428
TMSAT-1 30 Aug 13:36:18 13:39:55 19° 49° (NE) 13:43:33 436.925 FM
Uribyol 2 30 Aug 13:37:50 13:42:37 40° 61° (ENE) 13:47:25 436.500 FM
AO-27 30 Aug 13:56:25 14:01:25 51° 65° (ENE) 14:06:27 436.795 MHz FM
JAS-1B 30 Aug 14:11:48 14:21:18 71° 66° (ENE) 14:29:33 435.800 - 435.900 CW/SSB
Uosat F 30 Aug 14:20:50 14:22:43 12° 42° (NE) 14:24:36 435.120 FM
Gurwin Techsat 1B 30 Aug 14:22:25 14:27:24 43° 62° (ENE) 14:32:24 435.225 FM
ISS 30 Aug 14:24:41 14:27:50 39° 174° (S) 14:30:59 145.800 FM
MaSat-1 30 Aug 14:29:33 14:34:24 48° 117° (ESE) 14:39:22 437.345 MHz
SO-50 30 Aug 14:32:06 14:34:17 13° 249° (WSW) 14:36:28 436.795 FM
Oscar 19 30 Aug 14:35:23 14:40:24 49° 261° (W) 14:45:28 437.125 CW, 437.150 USB
UOSAT-12 30 Aug 14:51:50 14:56:25 48° 232° (SW) 15:00:56 437.025 FM, 437.400 FM
AO-7 30 Aug 14:52:12 14:59:42 40° 47° (NE) 15:07:12 29.400 - 29.500 MHz
RS-15 30 Aug 14:53:24 15:04:15 61° 20° (NNE) 15:15:22 29.354 - 29.394 USB, Beacon 29.352 USB
AO-Echo 30 Aug 15:05:39 15:10:30 50° 260° (W) 15:15:14 ?
ITAMSAT 1 30 Aug 15:06:54 15:11:58 54° 259° (W) 15:17:03 435.822 SSB
Oscar 16 30 Aug 15:11:13 15:15:36 27° 268° (W) 15:20:01 437.025 USB, Beacon 2401.1428
TMSAT-1 30 Aug 15:13:49 15:19:06 74° 70° (ENE) 15:24:25 436.925 FM
HO-68 30 Aug 15:14:53 15:17:22 12° 343° (NNW) 15:19:51 435.675 MHz FM
Uribyol 2 30 Aug 15:17:12 15:22:06 43° 262° (W) 15:27:04 436.500 FM
AO-27 30 Aug 15:36:31 15:41:11 33° 265° (W) 15:45:52 436.795 MHz FM
Uosat F 30 Aug 15:55:39 16:00:24 44° 63° (ENE) 16:05:10 435.120 FM
ISS 30 Aug 16:01:09 16:04:12 33° 194° (SSW) 16:07:14 145.800 FM
Gurwin Techsat 1B 30 Aug 16:02:25 16:07:26 42° 263° (W) 16:12:29 435.225 FM
JAS-1B 30 Aug 16:03:20 16:12:16 42° 266° (W) 16:20:14 435.800 - 435.900 CW/SSB
MaSat-1 30 Aug 16:06:36 16:11:33 46° 318° (NW) 16:16:31 437.345 MHz
UOSAT-12 30 Aug 16:35:12 16:35:31 10° 252° (WSW) 16:35:50 437.025 FM, 437.400 FM
AO-7 30 Aug 16:43:39 16:52:01 78° 250° (WSW) 17:00:24 29.400 - 29.500 MHz
JAS-2 30 Aug 16:46:55 16:51:21 24° 53° (NE) 16:55:31 435.800 - 435.900 CW/SSB, 435.910 FM
ITAMSAT 1 30 Aug 16:51:54 16:52:41 10° 280° (W) 16:53:29 435.822 SSB
TMSAT-1 30 Aug 16:55:25 16:59:36 23° 271° (W) 17:03:49 436.925 FM
HO-68 30 Aug 17:00:48 17:02:08 11° 9° (N) 17:03:27 435.675 MHz FM
RS-15 30 Aug 17:06:20 17:17:17 77° 230° (SW) 17:28:37 29.354 - 29.394 USB, Beacon 29.352 USB
OPAL 30 Aug 17:09:15 17:13:09 21° 91° (E) 17:17:02 ?
Hamsat 30 Aug 17:13:19 17:16:55 26° 60° (ENE) 17:20:32 145.90 MHz
Sapphire 30 Aug 17:23:30 17:27:31 22° 110° (ESE) 17:31:34 437.095 MHz 1200 baud AX-25 AFSK
Uosat F 30 Aug 17:34:41 17:39:19 37° 263° (W) 17:43:59 435.120 FM
ISS 30 Aug 17:38:30 17:40:16 14° 214° (SSW) 17:42:01 145.800 FM
MaSat-1 30 Aug 17:45:51 17:49:45 21° 341° (NNW) 17:53:35 437.345 MHz
PCSat 30 Aug 17:51:52 17:56:43 35° 117° (ESE) 18:01:36 145.825 MHz
JAS-1B 30 Aug 18:02:46 18:05:08 11° 289° (WNW) 18:07:28 435.800 - 435.900 CW/SSB
SO-67 30 Aug 18:15:35 18:17:40 15° 58° (ENE) 18:19:45 435.3500 MHz FM
JAS-2 30 Aug 18:30:07 18:36:03 84° 254° (WSW) 18:41:26 435.800 - 435.900 CW/SSB, 435.910 FM
AO-7 30 Aug 18:39:50 18:46:12 24° 274° (W) 18:52:37 29.400 - 29.500 MHz
HO-68 30 Aug 18:42:27 18:47:16 20° 35° (NE) 18:52:06 435.675 MHz FM
OPAL 30 Aug 18:47:26 18:52:41 84° 291° (WNW) 18:57:55 ?
Hamsat 30 Aug 18:48:22 18:52:38 55° 260° (W) 18:56:57 145.90 MHz
STRAND 1 30 Aug 18:53:38 18:55:52 13° 83° (E) 18:58:05 ?
Sapphire 30 Aug 19:04:52 19:10:18 87° 131° (SE) 19:15:46 437.095 MHz 1200 baud AX-25 AFSK
RS-15 30 Aug 19:19:16 19:27:59 29° 256° (WSW) 19:36:59 29.354 - 29.394 USB, Beacon 29.352 USB
MaSat-1 30 Aug 19:25:11 19:28:32 17° 5° (N) 19:31:46 437.345 MHz
PCSat 30 Aug 19:34:31 19:39:55 65° 318° (NW) 19:45:21 145.825 MHz
SO-67 30 Aug 19:46:50 19:50:18 71° 257° (WSW) 19:53:47 435.3500 MHz FM
JAS-2 30 Aug 20:18:08 20:21:57 18° 273° (W) 20:25:35 435.800 - 435.900 CW/SSB, 435.910 FM
HO-68 30 Aug 20:26:44 20:33:37 53° 59° (ENE) 20:40:31 435.675 MHz FM
OPAL 30 Aug 20:27:03 20:30:57 22° 312° (NW) 20:34:52 ?
STRAND 1 30 Aug 20:31:00 20:36:06 65° 103° (ESE) 20:41:10 ?
UKube-1 30 Aug 20:35:21 20:38:51 24° 57° (ENE) 20:42:22 145.840 MHz, 145.915 MHz
Oscar 11 30 Aug 20:42:01 20:45:06 19° 55° (NE) 20:48:12 145.825 FM, Beacon 2401.500 USB
Sapphire 30 Aug 20:49:20 20:54:19 35° 335° (NNW) 20:59:19 437.095 MHz 1200 baud AX-25 AFSK
MaSat-1 30 Aug 21:02:51 21:07:09 27° 29° (NNE) 21:11:06 437.345 MHz
FUNcube-1 30 Aug 21:08:14 21:10:45 16° 52° (NE) 21:13:18 145.950 - 145.970 MHz USB
PCSat 30 Aug 21:19:32 21:24:16 29° 343° (NNW) 21:29:01 145.825 MHz
UKube-1 30 Aug 22:10:28 22:14:46 60° 257° (WSW) 22:19:06 145.840 MHz, 145.915 MHz
STRAND 1 30 Aug 22:10:41 22:14:59 28° 304° (NW) 22:19:17 ?
HO-68 30 Aug 22:14:39 22:21:29 47° 261° (W) 22:28:23 435.675 MHz FM
Oscar 11 30 Aug 22:16:27 22:20:48 82° 255° (WSW) 22:25:13 145.825 FM, Beacon 2401.500 USB
